Weather in Orekhovo

Russia / Primorsky Krai     45°32′41″N   134°22′14″E
temp.,
°C
wind,
m/s
gust,
m/s
humid.,
%
clouds,
%
prec.,
mm/h
press.,
hPa
HPBL,
m
23 april, fri
fri2301:00+11ssw1152100 0.0 102412
04:00+9ssw1154100 0.0 102511
07:00+9ssw225699 0.0 102557
10:00+16sw3533100 0.0 1024709
13:00+18w4534100 0.0 10231017
16:00+18wnw3742100 0.0 10231553
19:00+15nw3861100 0.0 1023826
22:00+12sw2274100 0.0 102331
24 april, sat
sat2401:00+11w1381100 0.0 1023128
04:00+10nw4982100 0.1 1023782
07:00+8wnw3760100 0.2 1023672
10:00+6nw3563100 0.8 1023872
13:00+8w3640100 0.1 10221481
16:00+10wnw4722100 0.1 10201839
19:00+9wnw37230 0.0 1019651
22:00+4w22370 0.0 102025
25 april, sun
sun2501:00+2wsw22550 0.0 102035
04:000sw22618 0.0 101945
07:00+4w3124584 0.0 1017781
10:00+7nw8123392 0.0 10162744
13:00+9nnw71321100 0.0 10173325
16:00+9n71224100 0.0 10183304
19:00+8n39255 0.0 10192597
22:00+2wsw11360 0.0 102210
26 april, mon
mon2601:00+1ssw22424 0.0 102218
04:00−1ssw22475 0.0 102325
07:000s24500 0.0 1023108
10:00+10sw35225 0.0 10211124
13:00+14wsw45175 0.0 10191922
16:00+16sw46195 0.0 10162040
19:00+14sw473012 0.0 1015756
22:00+7s234961 0.0 101641
27 april, tue
tue2701:00+5s2359100 0.0 101762
04:00+4sse2461100 0.0 101576
07:00+5sse2462100 0.0 1014123
10:00+13s374492 0.0 1013791
13:00+19ssw583798 0.0 10101632
16:00+19ssw61038100 0.0 10082428
19:00+14ssw61256100 0.0 10081615
22:00+12s3974100 0.2 1009865